Weather History for KIKW - October, 2012

Change the Weather History Date:

Tuesday, October 30, 2012

  Actual Average (KMBS) Record (KMBS)
Temperature  
Mean Temperature 36 °F 45 °F  
Max Temperature 39 °F 54 °F 75 °F (1999)
Min Temperature 34 °F 36 °F 27 °F (2008)
Degree Days  
Heating Degree Days 28    
Month to date heating degree days  
Since 1 July heating degree days  
Cooling Degree Days 0    
Month to date cooling degree days  
Year to date cooling degree days  
Moisture  
Dew Point 32 °F    
Average Humidity 87    
Maximum Humidity 97    
Minimum Humidity 47    
Precipitation  
Precipitation 0.05 in 0.09 in 0.36 in (2012)
Month to date precipitation 2.55  
Year to date precipitation 26.90  
Snow  
Snow 0.00 in - - ()
Month to date snowfall  
Since 1 July snowfall  
Since 1 September snowfall  
Snow Depth -    
Sea Level Pressure  
Sea Level Pressure 29.63 in    
Wind  
Wind Speed 15 mph (NNW)    
Max Wind Speed 22 mph    
Max Gust Speed 33 mph    
Visibility 7 miles    
Events Rain , Snow    
T = Trace of Precipitation, MM = Missing Value Source: NWS Daily Summary

Daily Weather History Graph

Daily Weather History Graph

Search for Another Location

Airport or City:

Trip Planner

Search our weather history database for the weather conditions in past years. The results will help you decide how hot, cold, wet, or windy it might be!

Date:

Astronomy

Oct. 30, 2012 Rise Set
Actual Time 8:10 AM EDT 6:29 PM EDT
Civil Twilight 7:41 AM EDT 6:59 PM EDT
Nautical Twilight 7:07 AM EDT 7:33 PM EDT
Astronomical Twilight 6:33 AM EDT 8:06 PM EDT
Moon 6:56 PM EDT (10/30) 8:59 AM EDT (10/30)
Length of Visible Light 11h 18m
Length of Day
10h 18m
Full, 99% of the Moon is Illuminated
Oct 30
Full
Nov 6
Last Quarter
Nov 13
New
Nov 20
First Quarter
Nov 28
Full

Hourly Weather History & Observations

Time (EDT) Temp. Windchill Dew Point Humidity Pressure Visibility Wind Dir Wind Speed Gust Speed Precip Events Conditions
12:13 AM 39.2 °F 30.5 °F 20.5 °F 47% 29.85 in 10.0 mi North 16.1 mph 27.6 mph N/A   Overcast
12:34 AM 39.2 °F 30.5 °F 21.2 °F 49% 29.84 in 10.0 mi NNW 16.1 mph 29.9 mph N/A   Overcast
12:53 AM 39.2 °F 30.5 °F 21.7 °F 50% 29.82 in 10.0 mi NNW 16.1 mph 29.9 mph N/A   Overcast
1:13 AM 39.2 °F 29.8 °F 22.5 °F 51% 29.80 in 10.0 mi North 18.4 mph 26.5 mph N/A   Overcast
1:33 AM 38.7 °F 28.8 °F 22.8 °F 53% 29.78 in 10.0 mi NNW 19.6 mph 33.4 mph N/A   Overcast
1:53 AM 38.3 °F 29.0 °F 23.9 °F 56% 29.77 in 10.0 mi NNW 17.3 mph 32.2 mph N/A   Light Drizzle
2:33 AM 36.5 °F 27.4 °F 26.8 °F 68% 29.74 in 10.0 mi NNW 15.0 mph 31.1 mph N/A Rain Light Rain
3:12 AM 35.6 °F 26.2 °F 28.4 °F 75% 29.73 in 10.0 mi NNW 15.0 mph 26.5 mph N/A   Drizzle
3:33 AM 35.6 °F 25.5 °F 28.9 °F 77% 29.72 in 10.0 mi NNW 17.3 mph 23.0 mph N/A   Light Drizzle
3:53 AM 34.9 °F 24.2 °F 29.5 °F 81% 29.71 in 7.0 mi NNW 18.4 mph 27.6 mph N/A   Overcast
4:13 AM 34.7 °F 24.7 °F 30.2 °F 84% 29.70 in 4.0 mi NNW 16.1 mph 29.9 mph N/A   Overcast
4:33 AM 34.3 °F 23.5 °F 31.1 °F 88% 29.69 in 5.0 mi NNW 18.4 mph 28.8 mph N/A   Overcast
4:54 AM 34.3 °F 23.5 °F 31.1 °F 88% 29.67 in 10.0 mi NNW 18.4 mph 27.6 mph N/A   Overcast
5:13 AM 34.3 °F 25.5 °F 31.3 °F 89% 29.67 in 7.0 mi NNW 12.7 mph 21.9 mph N/A   Overcast
5:33 AM 34.7 °F 25.5 °F 31.1 °F 87% 29.67 in 10.0 mi NNW 13.8 mph 21.9 mph N/A   Overcast
5:54 AM 34.9 °F 25.3 °F 30.9 °F 85% 29.66 in 10.0 mi NNW 15.0 mph 25.3 mph N/A   Overcast
6:13 AM 34.7 °F 23.7 °F 31.1 °F 87% 29.65 in 7.0 mi NNW 19.6 mph 28.8 mph N/A   Overcast
6:33 AM 34.7 °F 23.7 °F 31.3 °F 87% 29.64 in 7.0 mi NNW 19.6 mph 27.6 mph N/A   Overcast
6:54 AM 34.3 °F 23.9 °F 31.3 °F 89% 29.63 in 7.0 mi NNW 17.3 mph 25.3 mph N/A   Overcast
7:13 AM 34.3 °F 22.6 °F 31.5 °F 89% 29.62 in 5.0 mi NNW 21.9 mph 31.1 mph N/A   Overcast
7:33 AM 34.0 °F 22.7 °F 31.8 °F 92% 29.62 in 7.0 mi NNW 19.6 mph 29.9 mph N/A Snow Light Snow
7:54 AM 34.0 °F 23.8 °F 32.0 °F 92% 29.62 in 7.0 mi NNW 16.1 mph 27.6 mph N/A Snow Light Snow
8:13 AM 34.2 °F 24.8 °F 31.8 °F 91% 29.62 in 7.0 mi NNW 13.8 mph 24.2 mph N/A   Overcast
8:21 AM 34.2 °F 25.2 °F 31.8 °F 91% 29.63 in 7.0 mi North 12.7 mph 24.2 mph N/A   Overcast
8:54 AM 34.3 °F 25.0 °F 32.0 °F 91% 29.63 in 7.0 mi NNW 13.8 mph 20.7 mph N/A   Overcast
9:13 AM 34.7 °F 25.9 °F 32.0 °F 90% 29.62 in 10.0 mi NNW 12.7 mph 21.9 mph N/A   Overcast
9:33 AM 34.9 °F 25.3 °F 32.0 °F 89% 29.62 in 10.0 mi North 15.0 mph 24.2 mph N/A   Overcast
9:53 AM 35.2 °F 28.1 °F 32.0 °F 88% 29.62 in 10.0 mi NNW 9.2 mph 23.0 mph N/A   Overcast
10:13 AM 35.6 °F 26.2 °F 32.0 °F 87% 29.62 in 7.0 mi NNW 15.0 mph 23.0 mph N/A   Overcast
10:34 AM 35.6 °F 26.2 °F 32.0 °F 87% 29.62 in 7.0 mi NNW 15.0 mph 21.9 mph N/A Snow Light Snow
10:53 AM 35.6 °F 27.5 °F 32.0 °F 87% 29.61 in 5.0 mi NNW 11.5 mph 20.7 mph N/A Snow Light Snow
11:14 AM 34.9 °F 26.6 °F 32.0 °F 89% 29.61 in 3.0 mi North 11.5 mph 19.6 mph 0.01 in Snow Light Snow
11:33 AM 35.4 °F 27.8 °F 32.4 °F 89% 29.61 in 7.0 mi North 10.4 mph 18.4 mph 0.02 in Snow Light Snow
11:53 AM 35.6 °F 28.0 °F 32.9 °F 90% 29.60 in 4.0 mi North 10.4 mph 17.3 mph 0.03 in Snow Light Snow
12:14 PM 36.7 °F 28.9 °F 34.5 °F 92% 29.60 in 10.0 mi North 11.5 mph 19.6 mph N/A   Drizzle
12:33 PM 37.2 °F 28.7 °F 34.9 °F 91% 29.60 in 7.0 mi North 13.8 mph 21.9 mph N/A   Drizzle
12:53 PM 37.4 °F 27.8 °F 35.6 °F 93% 29.59 in 2.5 mi NNW 17.3 mph 21.9 mph N/A Rain Light Rain
1:13 PM 37.4 °F 29.3 °F 35.6 °F 93% 29.59 in 5.0 mi NNW 12.7 mph 19.6 mph N/A Rain Rain
1:33 PM 37.4 °F 29.8 °F 35.6 °F 93% 29.58 in 4.0 mi NNW 11.5 mph 20.7 mph N/A Rain Rain
1:54 PM 37.6 °F 29.6 °F 35.8 °F 93% 29.57 in 5.0 mi North 12.7 mph 19.6 mph 0.02 in Rain Light Rain
2:13 PM 38.3 °F 30.1 °F 36.1 °F 92% 29.57 in 7.0 mi NNW 13.8 mph 21.9 mph N/A Rain Rain
2:33 PM 38.3 °F 30.5 °F 35.8 °F 91% 29.57 in 7.0 mi NNW 12.7 mph 20.7 mph N/A Rain Rain
2:54 PM 37.9 °F 30.9 °F 35.8 °F 92% 29.57 in 7.0 mi NNW 10.4 mph 26.5 mph N/A Rain Light Rain
3:13 PM 38.3 °F 31.4 °F 36.3 °F 93% 29.56 in 7.0 mi NNW 10.4 mph 23.0 mph N/A   Drizzle
3:33 PM 38.3 °F 31.4 °F 36.1 °F 92% 29.56 in 10.0 mi NNW 10.4 mph 23.0 mph N/A   Drizzle
3:54 PM 38.5 °F 29.6 °F 35.8 °F 90% 29.56 in 10.0 mi NNW 16.1 mph 24.2 mph N/A   Light Drizzle
4:13 PM 38.3 °F 29.7 °F 35.8 °F 91% 29.56 in 10.0 mi NNW 15.0 mph 21.9 mph N/A   Drizzle
4:33 PM 37.8 °F 29.4 °F 35.8 °F 93% 29.57 in 5.0 mi NNW 13.8 mph 19.6 mph N/A Rain Light Rain
4:53 PM 37.6 °F 28.8 °F 35.6 °F 93% 29.57 in 7.0 mi NNW 15.0 mph 20.7 mph N/A Rain Light Rain
5:13 PM 37.4 °F 29.3 °F 35.1 °F 91% 29.57 in 10.0 mi NNW 12.7 mph 19.6 mph N/A Rain Light Rain
5:34 PM 37.4 °F 29.3 °F 35.6 °F 93% 29.57 in 5.0 mi NNW 12.7 mph 18.4 mph N/A Rain Light Rain
5:53 PM 37.4 °F 29.8 °F 35.6 °F 93% 29.57 in 7.0 mi NNW 11.5 mph 18.4 mph N/A Rain Light Rain
6:13 PM 37.2 °F 29.6 °F 35.2 °F 93% 29.57 in 10.0 mi NNW 11.5 mph 18.4 mph N/A   Light Drizzle
6:34 PM 36.9 °F 27.8 °F 34.9 °F 93% 29.57 in 10.0 mi NNW 15.0 mph 20.7 mph N/A   Overcast
6:53 PM 36.9 °F 30.1 °F 35.1 °F 93% 29.58 in 7.0 mi NNW 9.2 mph 17.3 mph N/A   Overcast
7:14 PM 36.5 °F 30.3 °F 35.1 °F 95% 29.58 in 5.0 mi NW 8.1 mph 17.3 mph N/A Rain Light Rain
7:33 PM 36.5 °F 29.2 °F 34.7 °F 93% 29.58 in 7.0 mi NW 10.4 mph 18.4 mph N/A   Drizzle
7:53 PM 36.5 °F 27.8 °F 34.7 °F 93% 29.58 in 7.0 mi NW 13.8 mph 19.6 mph N/A   Drizzle
8:14 PM 36.0 °F 28.5 °F 34.5 °F 94% 29.59 in 7.0 mi NNW 10.4 mph 18.4 mph N/A   Drizzle
8:33 PM 36.0 °F 28.5 °F 34.3 °F 94% 29.59 in 10.0 mi NNW 10.4 mph - N/A   Overcast
8:54 PM 36.0 °F 28.0 °F 34.2 °F 93% 29.59 in 10.0 mi NW 11.5 mph 19.6 mph N/A   Overcast
9:05 PM 36.0 °F 28.5 °F 34.0 °F 93% 29.58 in 10.0 mi NW 10.4 mph 19.6 mph N/A   Overcast
9:33 PM 36.1 °F 28.7 °F 34.0 °F 92% 29.59 in 10.0 mi NNW 10.4 mph 18.4 mph N/A   Overcast
9:54 PM 36.0 °F 28.5 °F 34.0 °F 93% 29.59 in 3.0 mi NNW 10.4 mph 19.6 mph N/A   Drizzle
10:14 PM 35.8 °F 27.8 °F 34.2 °F 94% 29.59 in 5.0 mi NW 11.5 mph 18.4 mph N/A Rain Light Rain
10:33 PM 35.6 °F 28.0 °F 34.3 °F 95% 29.59 in 3.0 mi NW 10.4 mph 18.4 mph N/A   Drizzle
10:54 PM 35.6 °F 28.0 °F 34.5 °F 96% 29.58 in 3.0 mi NW 10.4 mph 18.4 mph N/A   Drizzle
11:14 PM 35.2 °F 27.1 °F 34.3 °F 97% 29.58 in 4.0 mi NW 11.5 mph - N/A   Light Drizzle
11:33 PM 35.1 °F 28.6 °F 34.2 °F 97% 29.58 in 4.0 mi NW 8.1 mph - N/A   Overcast
11:54 PM 35.2 °F 27.6 °F 34.2 °F 96% 29.58 in 10.0 mi NW 10.4 mph 16.1 mph N/A   Overcast